Other Surface Observations
Issued by NWS Charleston, SC

Home | Current Version | Previous Version | Text Only | Print | Product List | Glossary On
Versions: 1 2 3 4 5 6 7 8 9 10 11 12 13 14 15 16 17 18 19 20 21 22 23 24 25 26 27 28 29 30 31 32 33 34 35 36 37 38 39 40 41 42 43 44 45 46 47 48 49 50
520
SXUS52 KCHS 290913
OSOCHS

MARINE OBSERVATIONS
NATIONAL WEATHER SERVICE CHARLESTON SC
500 AM EDT FRI APR 29 2016

...DOWNTOWN CHARLESTON AND HARBOR...

CITY           SKY/WX    TMP DP  RH WIND       PRES   REMARKS
WATERFRONT PRK   N/A     71  69  93 VRB3      29.90S

...LAKE MOULTRIE...

CITY           SKY/WX    TMP DP  RH WIND       PRES   REMARKS
PINOPOLIS        N/A     72  68  88 SW9       29.82R

...LAKE AND SUPPLEMENTAL COASTAL OBSERVATIONS...

STATION/POSITION TIME  TEMP    WIND        PRES    WAVE   SWELL
                       AIR SEA DIR/SP/G            HT/PER HT/PER/DIR
                 (UTC) (F)     (DEG/KT/KT) (MB)    (FT/S) (FT/S/D)
FORT PULASKI     0800   72 71  240/  5/  7 1014.1R
SAPELO ISLAND    0800   71     230/  4     1014.0S
WINYAH BAY       0745   71     250/  7     1011.0
LAKE MURRAY      0800   71     270/  5/  6 1012.5R
ACE BASIN NERRS  0745   71        CALM     1013.0


...C-MAN AND BUOY OBSERVATIONS...

STATION/POSITION TIME  TEMP    WIND        PRES    WAVE   SWELL
                       AIR SEA DIR/SP/G            HT/PER HT/PER/DIR
                 (UTC) (F)     (DEG/KT/KT) (MB)    (FT/S) (FT/S/D)
BUOY 41004       0850   73 72  230/ 12/ 14 1012.8R   3/ 4   2/ 8
BUOY 41008       NOT AVBL
FOLLY BEACH CMAN 0800   71     220/  6/  7 1013.2S
CAPERS NS BUOY   0808   70 69  240/ 10/ 16 1012.8R
FRIPP NS BUOY    0808   72 71  250/ 12/ 14 1012.9R
5E ST. MARYS GA  0821      72                N/A     1/ 9


STATION/POSITION TIME  TEMP    WIND        PRES    WAVE   SWELL
                       AIR SEA DIR/SP/G            HT/PER HT/PER/DIR
                 (UTC) (F)     (DEG/KT/KT) (MB)    (FT/S) (FT/S/D)
FRYING PAN BUOY  0800   72 69  230/ 14/ 16 1012.0S
BUOY 41025       0850   66 71   10/ 10/ 14 1011.3S   3/ 6   2/180/ 6
CAPE LOOKOUT NC  0800   69     220/  6/  8 1011.2F
BUOY 41002       0850   71 71  200/ 10/ 12 1014.8R   2/10   2/ 80/10
BUOY 41010       0820   75 76  200/ 10/ 10 1015.2R
ST AUGUSTINE FL  0900   71 69  280/  6/  7 1015.5S

$$




USA.gov is the U.S. government's official web portal to all federal, state and local government web resources and services.